Location: Thompson
(55.7500°N, 97.8670°W)
Time: 12:23:20
(UTC-05:00)

Cosmos 1666 - Visible Passes

Search period start: 25 September 2016 00:00
Search period end: 05 October 2016 00:00
Orbit: 504 x 526 km, 82.5° (Epoch: 25 September)

Date Brightness Start Highest point End Pass type
(mag) Time Alt. Az. Time Alt. Az. Time Alt. Az.
25 Sep 4.8 04:42:14 10° N 04:45:41 29° ENE 04:49:05 10° SE visible
25 Sep 3.3 06:17:51 10° NNW 06:21:27 36° W 06:25:00 10° SSW visible
25 Sep 5.8 20:16:20 10° WSW 20:19:17 20° WNW 20:22:15 10° NNW visible
26 Sep 5.0 04:27:02 10° N 04:30:20 25° ENE 04:33:35 10° ESE visible
26 Sep 3.1 06:02:30 10° NNW 06:06:13 42° W 06:09:51 10° SSW visible
26 Sep 5.6 20:00:47 10° WSW 20:03:55 23° WNW 20:07:06 10° N visible
27 Sep 5.2 04:11:53 10° N 04:14:59 22° ENE 04:18:03 10° ESE visible
27 Sep 2.9 05:47:11 10° NNW 05:50:57 49° W 05:54:41 10° S visible
28 Sep 5.4 03:56:44 10° NNE 03:59:37 19° ENE 04:02:28 10° ESE visible
28 Sep 2.7 05:31:51 10° NNW 05:35:42 58° W 05:39:29 10° S visible
29 Sep 5.5 03:41:37 10° NNE 03:44:14 17° ENE 03:46:50 10° ESE visible
29 Sep 2.6 05:16:32 10° NNW 05:20:26 70° W 05:22:49 22° S visible
30 Sep 5.7 03:26:33 10° NNE 03:28:51 15° ENE 03:30:54 11° E visible
30 Sep 2.5 05:01:14 10° NNW 05:05:08 82° W 05:05:48 60° S visible
30 Sep 4.7 06:39:02 10° WNW 06:40:08 11° W 06:40:41 11° W visible
01 Oct 5.7 03:11:33 10° NNE 03:13:27 13° ENE 03:14:24 12° ENE visible
01 Oct 2.9 04:45:56 10° N 04:49:19 65° N 04:49:19 65° N visible
01 Oct 4.7 06:23:09 10° NW 06:24:14 12° WNW 06:24:14 12° WNW visible
02 Oct 5.9 02:56:38 10° NNE 02:58:02 12° NE 02:58:13 12° ENE visible
02 Oct 3.9 04:30:39 10° N 04:33:08 37° N 04:33:08 37° N visible
02 Oct 4.9 06:07:30 10° NW 06:08:05 12° NW 06:08:05 12° NW visible
03 Oct 4.6 04:15:22 10° N 04:17:10 25° N 04:17:10 25° N visible
03 Oct 5.1 05:51:57 10° NW 05:52:06 11° NW 05:52:06 11° NW visible
03 Oct 6.1 19:52:03 10° WNW 19:53:07 11° NW 19:54:11 10° NW visible
04 Oct 5.1 04:00:06 10° N 04:01:18 19° N 04:01:18 19° N visible
04 Oct 5.9 19:36:00 10° W 19:37:42 12° NW 19:39:24 10° NNW visible
